Погода в Рассыпном

Россия / Оренбургская область     51°36′03″N   53°37′35″E
темп.,
°C
ветер,
м/с
пор.,
м/с
влажн.,
%
обл.,
%
осадки,
мм/ч
давл.,
гПа
погр.,
м
6 марта, сб
сб623:000з6119799 0.7 1011516
02:00−1ссз3497100 0.2 1012214
05:00−5с2389100 0.3 101425
08:00−10ссв128685 0.0 101421
11:00−6всв118475 0.0 101560
14:00−3з018168 0.0 1016259
17:00−3вюв118584 0.0 1015255
20:00−5всв1290100 0.0 101421
7 марта, вс
вс723:00−5всв3493100 0.1 101397
02:00−6св4796100 1.3 1010256
05:00−6св5995100 2.7 1009370
08:00−7ссв71294100 1.1 1008493
11:00−7с61091100 1.9 1009655
14:00−6ссз6975100 0.1 1011621
17:00−7сз468150 0.1 1014368
20:00−13з33880 0.0 101521
8 марта, пн
пн823:00−15юз34870 0.0 101630
02:00−13ююз499441 0.0 1015177
05:00−9ююз7158971 0.0 1013451
08:00−7ююз91886100 0.0 1010667
11:00−4юз111788100 0.2 1009877
14:00−2юз101591100 0.3 1009998
17:00−1юз101492100 0.8 10091074
20:00−2юз71393100 0.3 1010765
9 марта, вт
вт923:00−2ююз71493100 0.4 1009729
02:00−1юз91594100 0.4 1007827
05:00−1юз81397100 1.1 1007744
08:00−4сз4896100 1.7 1008351
11:00−4з4787100 2.6 1010487
14:00−5зсз458667 0.0 1011443
17:00−6з358839 0.0 1012425
20:00−13зсз239268 0.0 101321
10 марта, ср
ср1023:00−15з339581 0.0 101425
02:00−16сз2395100 0.0 101421
05:00−18сз129683 0.0 101420
08:00−19сз22981 0.0 101420
11:00−14сз349232 0.0 1015230
14:00−12зсз4588100 0.0 1016461
17:00−12зсз4688100 0.0 1016585
20:00−16зсз479599 0.0 1017125